REICHNBCH Weather Reports


time (UTC)temp
F
wind
direction
speed
knots
gust
knots
rain 1hr
in
rain 24hr
in
rain mn
in
humidity
%
barometer
mb
20260506090211 56 0 0.9 0.0 0.00 0.00 0.01 75 1007.8
20260506083211 53 26 1.7 0.0 0.00 0.00 0.01 74 1007.9
20260506080212 53 96 0.0 0.0 0.00 0.00 0.01 74 1008.0
20260506073211 52 96 0.0 0.0 0.00 0.00 0.01 74 1008.2
20260506070212 50 96 0.0 0.0 0.00 0.00 0.01 74 1007.9
20260506060210 48 24 0.0 0.0 0.00 0.00 0.01 75 1007.9
20260506050211 47 24 0.0 0.0 0.00 0.00 0.01 75 1008.2
20260506043211 47 24 0.0 0.0 0.00 0.00 0.01 75 1008.1
20260506040211 46 22 0.0 0.0 0.00 0.00 0.01 75 1008.3
20260506033211 46 58 0.0 0.0 0.00 0.00 0.01 76 1008.8
20260506030212 46 63 0.0 0.0 0.00 0.00 0.01 76 1008.5
20260506023211 47 41 0.0 0.0 0.00 0.00 0.01 76 1008.6
20260506020212 48 40 0.0 0.0 0.00 0.00 0.01 76 1008.9
20260506013211 48 15 1.7 0.0 0.00 0.00 0.01 76 1009.0
20260506010213 48 75 0.0 0.0 0.00 0.00 0.00 76 1009.0
20260506003209 49 118 1.7 0.0 0.00 0.00 0.00 76 1009.0
20260506000211 49 42 0.0 0.0 0.00 0.00 0.00 76 1009.5
20260505233209 51 42 0.0 0.0 0.00 0.00 0.00 76 1009.7
20260505230209 52 283 4.3 0.0 0.00 0.00 0.00 75 1009.6
20260505223210 52 336 1.7 0.0 0.00 0.00 0.00 76 1009.6
20260505220209 53 337 3.5 0.0 0.00 0.00 0.00 76 1009.5
20260505213211 53 15 1.7 0.0 0.00 0.00 0.18 76 1009.6
20260505210215 54 332 2.6 0.0 0.00 0.00 0.18 76 1009.7
20260505203209 54 360 2.6 0.0 0.00 0.00 0.18 77 1009.4
20260505200210 55 290 3.5 0.0 0.00 0.00 0.18 77 1009.0
20260505193209 55 350 4.3 0.0 0.00 0.00 0.18 77 1008.7
20260505190215 55 113 0.9 0.0 0.00 0.00 0.18 77 1008.6
20260505183212 56 113 0.9 0.0 0.00 0.00 0.17 78 1008.5
20260505180211 57 0 0.0 0.0 0.00 0.00 0.17 78 1008.3
20260505173210 57 53 0.0 0.0 0.00 0.00 0.14 80 1008.6
20260505170210 58 0 0.0 0.0 0.00 0.00 0.14 81 1008.2
20260505163211 58 0 0.0 0.0 0.00 0.00 0.13 81 1008.2
20260505153210 58 149 1.7 0.0 0.00 0.00 0.13 77 1008.2
20260505150216 57 86 0.9 0.0 0.00 0.00 0.13 78 1008.7
20260505140210 56 5 4.3 0.0 0.00 0.00 0.12 80 1009.2
20260505130210 59 252 7.8 0.0 0.00 0.00 0.03 82 1009.2
20260505123210 66 323 0.9 0.0 0.00 0.00 0.00 70 1008.1
20260505120210 67 329 2.6 0.0 0.00 0.00 0.00 67 1008.1
20260505113210 67 309 1.7 0.0 0.00 0.00 0.00 72 1008.0
20260505110211 67 338 4.3 0.0 0.00 0.00 0.00 65 1008.2
20260505100212 69 205 4.3 0.0 0.00 0.00 0.00 65 1008.6
20260505093212 67 320 2.6 0.0 0.00 0.00 0.00 72 1008.8